Time,TemperatureF,DewpointF,PressureIn,WindDirection,WindDirectionDegrees,WindSpeedMPH,WindSpeedGustMPH,Humidity,HourlyPrecipIn,Conditions,Clouds,dailyrainin,SoftwareType,DateUTC
2013-02-11 00:04:00,43.0,34.0,30.11,NNW,339,0.0,1.0,70,0.00,,,0.00,weatherlink.com 1.10,2013-02-11 08:04:00,
2013-02-11 00:19:00,44.1,33.0,30.11,NNW,339,0.0,1.0,66,0.00,,,0.00,weatherlink.com 1.10,2013-02-11 08:19:00,
2013-02-11 00:34:00,44.6,35.0,30.11,NW,310,0.0,1.0,68,0.00,,,0.00,weatherlink.com 1.10,2013-02-11 08:34:00,
2013-02-11 00:49:00,44.3,36.0,30.11,ENE,78,0.0,2.0,72,0.00,,,0.00,weatherlink.com 1.10,2013-02-11 08:49:00,
2013-02-11 01:04:00,43.0,32.0,30.11,North,359,0.0,1.0,66,0.00,,,0.00,weatherlink.com 1.10,2013-02-11 09:04:00,
2013-02-11 01:19:00,43.2,34.0,30.11,North,359,0.0,1.0,70,0.00,,,0.00,weatherlink.com 1.10,2013-02-11 09:19:00,
2013-02-11 01:34:00,42.2,33.0,30.11,North,359,0.0,0.0,71,0.00,,,0.00,weatherlink.com 1.10,2013-02-11 09:34:00,
2013-02-11 01:49:00,41.8,34.0,30.11,North,359,0.0,1.0,75,0.00,,,0.00,weatherlink.com 1.10,2013-02-11 09:49:00,
2013-02-11 02:04:00,40.7,34.0,30.11,North,359,0.0,1.0,78,0.00,,,0.00,weatherlink.com 1.10,2013-02-11 10:04:00,
2013-02-11 02:19:00,39.6,35.0,30.11,North,1,0.0,1.0,82,0.00,,,0.00,weatherlink.com 1.10,2013-02-11 10:19:00,
2013-02-11 02:34:00,39.7,33.0,30.12,ENE,71,0.0,3.0,77,0.00,,,0.00,weatherlink.com 1.10,2013-02-11 10:34:00,
2013-02-11 02:49:00,40.3,33.0,30.12,East,88,0.0,3.0,75,0.00,,,0.00,weatherlink.com 1.10,2013-02-11 10:49:00,
2013-02-11 03:04:00,40.1,33.0,30.12,East,81,0.0,1.0,76,0.00,,,0.00,weatherlink.com 1.10,2013-02-11 11:04:00,
2013-02-11 03:19:00,40.0,33.0,30.11,East,80,0.0,0.0,77,0.00,,,0.00,weatherlink.com 1.10,2013-02-11 11:19:00,
2013-02-11 03:34:00,40.7,33.0,30.11,ENE,75,0.0,1.0,73,0.00,,,0.00,weatherlink.com 1.10,2013-02-11 11:34:00,
2013-02-11 03:49:00,41.3,33.0,30.11,NNW,328,0.0,1.0,73,0.00,,,0.00,weatherlink.com 1.10,2013-02-11 11:49:00,
2013-02-11 04:04:00,41.5,31.0,30.11,NNE,19,0.0,1.0,66,0.00,,,0.00,weatherlink.com 1.10,2013-02-11 12:04:00,
2013-02-11 04:19:00,42.7,33.0,30.12,ENE,73,1.0,3.0,68,0.00,,,0.00,weatherlink.com 1.10,2013-02-11 12:19:00,
2013-02-11 04:34:00,41.7,31.0,30.11,NW,326,0.0,1.0,66,0.00,,,0.00,weatherlink.com 1.10,2013-02-11 12:34:00,
2013-02-11 04:49:00,41.9,31.0,30.12,NNW,330,0.0,2.0,66,0.00,,,0.00,weatherlink.com 1.10,2013-02-11 12:49:00,
2013-02-11 05:05:00,43.0,30.0,30.12,ENE,65,0.0,2.0,61,0.00,,,0.00,weatherlink.com 1.10,2013-02-11 13:05:00,
2013-02-11 05:20:00,43.1,30.0,30.12,ENE,59,0.0,1.0,61,0.00,,,0.00,weatherlink.com 1.10,2013-02-11 13:20:00,
2013-02-11 05:35:00,44.5,29.0,30.13,NW,311,0.0,3.0,56,0.00,,,0.00,weatherlink.com 1.10,2013-02-11 13:35:00,
2013-02-11 05:50:00,44.7,31.0,30.14,WNW,297,0.0,2.0,58,0.00,,,0.00,weatherlink.com 1.10,2013-02-11 13:50:00,
2013-02-11 06:05:00,43.4,29.0,30.14,NNE,24,1.0,1.0,58,0.00,,,0.00,weatherlink.com 1.10,2013-02-11 14:05:00,
2013-02-11 06:20:00,42.7,30.0,30.14,ENE,75,0.0,1.0,60,0.00,,,0.00,weatherlink.com 1.10,2013-02-11 14:20:00,
2013-02-11 06:35:00,42.2,30.0,30.15,ENE,75,0.0,0.0,62,0.00,,,0.00,weatherlink.com 1.10,2013-02-11 14:35:00,
2013-02-11 06:50:00,40.9,30.0,30.15,ENE,75,0.0,1.0,65,0.00,,,0.00,weatherlink.com 1.10,2013-02-11 14:50:00,
2013-02-11 07:05:00,40.5,31.0,30.16,ENE,75,0.0,0.0,68,0.00,,,0.00,weatherlink.com 1.10,2013-02-11 15:05:00,
2013-02-11 07:20:00,40.1,31.0,30.16,ENE,75,0.0,1.0,69,0.00,,,0.00,weatherlink.com 1.10,2013-02-11 15:20:00,
2013-02-11 07:35:00,39.9,31.0,30.17,ENE,75,0.0,0.0,70,0.00,,,0.00,weatherlink.com 1.10,2013-02-11 15:35:00,
2013-02-11 08:05:00,40.4,32.0,30.18,ENE,75,0.0,1.0,71,0.00,,,0.00,weatherlink.com 1.10,2013-02-11 16:05:00,
2013-02-11 08:20:00,41.7,33.0,30.19,ENE,75,0.0,1.0,72,0.00,,,0.00,weatherlink.com 1.10,2013-02-11 16:20:00,
2013-02-11 08:35:00,43.3,34.0,30.19,ENE,75,0.0,1.0,69,0.00,,,0.00,weatherlink.com 1.10,2013-02-11 16:35:00,
2013-02-11 08:50:00,45.4,35.0,30.20,ENE,75,0.0,0.0,67,0.00,,,0.00,weatherlink.com 1.10,2013-02-11 16:50:00,
2013-02-11 09:05:00,48.5,37.0,30.20,ENE,75,0.0,0.0,64,0.00,,,0.00,weatherlink.com 1.10,2013-02-11 17:05:00,
2013-02-11 09:20:00,50.7,35.0,30.20,NNE,21,0.0,2.0,55,0.00,,,0.00,weatherlink.com 1.10,2013-02-11 17:20:00,
2013-02-11 09:35:00,52.3,35.0,30.20,ENE,64,0.0,2.0,53,0.00,,,0.00,weatherlink.com 1.10,2013-02-11 17:35:00,
2013-02-11 09:50:00,53.1,35.0,30.21,ENE,64,0.0,0.0,50,0.00,,,0.00,weatherlink.com 1.10,2013-02-11 17:50:00,
2013-02-11 10:05:00,54.4,34.0,30.21,NE,48,0.0,1.0,47,0.00,,,0.00,weatherlink.com 1.10,2013-02-11 18:05:00,
2013-02-11 10:20:00,58.2,32.0,30.21,ENE,63,1.0,2.0,38,0.00,,,0.00,weatherlink.com 1.10,2013-02-11 18:20:00,
2013-02-11 10:35:00,60.7,35.0,30.21,SSE,165,2.0,3.0,38,0.00,,,0.00,weatherlink.com 1.10,2013-02-11 18:35:00,
2013-02-11 10:50:00,62.1,37.0,30.21,South,188,0.0,3.0,40,0.00,,,0.00,weatherlink.com 1.10,2013-02-11 18:50:00,
2013-02-11 11:05:00,61.8,37.0,30.21,SSW,194,0.0,4.0,40,0.00,,,0.00,weatherlink.com 1.10,2013-02-11 19:05:00,
2013-02-11 11:21:00,62.3,35.0,30.21,WSW,240,0.0,3.0,36,0.00,,,0.00,weatherlink.com 1.10,2013-02-11 19:21:00,
2013-02-11 11:36:00,62.8,36.0,30.20,SSW,209,0.0,4.0,37,0.00,,,0.00,weatherlink.com 1.10,2013-02-11 19:36:00,
2013-02-11 11:51:00,63.9,38.0,30.20,SSE,161,2.0,3.0,38,0.00,,,0.00,weatherlink.com 1.10,2013-02-11 19:51:00,
2013-02-11 12:06:00,64.0,36.0,30.19,SSE,161,3.0,4.0,35,0.00,,,0.00,weatherlink.com 1.10,2013-02-11 20:06:00,
2013-02-11 12:21:00,64.4,37.0,30.19,WNW,294,2.0,3.0,36,0.00,,,0.00,weatherlink.com 1.10,2013-02-11 20:21:00,
2013-02-11 12:36:00,65.3,39.0,30.18,SW,234,0.0,3.0,38,0.00,,,0.00,weatherlink.com 1.10,2013-02-11 20:36:00,
2013-02-11 12:51:00,65.5,38.0,30.18,WNW,294,0.0,5.0,36,0.00,,,0.00,weatherlink.com 1.10,2013-02-11 20:51:00,
2013-02-11 13:06:00,64.8,38.0,30.17,SSE,158,1.0,5.0,37,0.00,,,0.00,weatherlink.com 1.10,2013-02-11 21:06:00,
2013-02-11 13:21:00,63.6,39.0,30.16,ESE,122,3.0,10.0,40,0.00,,,0.00,weatherlink.com 1.10,2013-02-11 21:21:00,
2013-02-11 13:36:00,63.4,37.0,30.16,SSW,209,5.0,8.0,38,0.00,,,0.00,weatherlink.com 1.10,2013-02-11 21:36:00,
2013-02-11 13:51:00,62.4,36.0,30.16,South,172,4.0,9.0,37,0.00,,,0.00,weatherlink.com 1.10,2013-02-11 21:51:00,
2013-02-11 14:06:00,63.1,36.0,30.16,South,178,6.0,7.0,37,0.00,,,0.00,weatherlink.com 1.10,2013-02-11 22:06:00,
2013-02-11 14:21:00,63.0,34.0,30.16,SSW,199,2.0,9.0,34,0.00,,,0.00,weatherlink.com 1.10,2013-02-11 22:21:00,
2013-02-11 14:36:00,62.5,34.0,30.16,WSW,257,1.0,9.0,35,0.00,,,0.00,weatherlink.com 1.10,2013-02-11 22:36:00,
2013-02-11 14:51:00,62.3,36.0,30.16,South,179,8.0,8.0,37,0.00,,,0.00,weatherlink.com 1.10,2013-02-11 22:51:00,
2013-02-11 15:06:00,62.2,35.0,30.16,South,177,6.0,7.0,36,0.00,,,0.00,weatherlink.com 1.10,2013-02-11 23:06:00,
2013-02-11 15:21:00,62.3,36.0,30.16,WSW,250,3.0,7.0,37,0.00,,,0.00,weatherlink.com 1.10,2013-02-11 23:21:00,
2013-02-11 15:36:00,62.6,39.0,30.16,SSE,167,3.0,6.0,42,0.00,,,0.00,weatherlink.com 1.10,2013-02-11 23:36:00,
2013-02-11 15:51:00,61.8,38.0,30.16,WSW,242,4.0,6.0,41,0.00,,,0.00,weatherlink.com 1.10,2013-02-11 23:51:00,
2013-02-11 16:06:00,61.4,37.0,30.16,South,190,3.0,6.0,40,0.00,,,0.00,weatherlink.com 1.10,2013-02-12 00:06:00,
2013-02-11 16:21:00,61.2,37.0,30.16,South,184,3.0,5.0,41,0.00,,,0.00,weatherlink.com 1.10,2013-02-12 00:21:00,
2013-02-11 16:36:00,61.4,37.0,30.16,SSW,195,0.0,4.0,40,0.00,,,0.00,weatherlink.com 1.10,2013-02-12 00:36:00,
2013-02-11 16:51:00,61.0,38.0,30.17,SSW,204,2.0,4.0,43,0.00,,,0.00,weatherlink.com 1.10,2013-02-12 00:51:00,
2013-02-11 17:06:00,60.2,39.0,30.16,SSW,204,0.0,3.0,45,0.00,,,0.00,weatherlink.com 1.10,2013-02-12 01:06:00,
2013-02-11 17:21:00,57.8,39.0,30.17,SSW,204,0.0,1.0,50,0.00,,,0.00,weatherlink.com 1.10,2013-02-12 01:21:00,
2013-02-11 17:36:00,57.3,38.0,30.17,SSW,204,0.0,0.0,48,0.00,,,0.00,weatherlink.com 1.10,2013-02-12 01:36:00,
2013-02-11 17:51:00,56.3,38.0,30.17,SSW,204,0.0,0.0,51,0.00,,,0.00,weatherlink.com 1.10,2013-02-12 01:51:00,
2013-02-11 18:06:00,54.5,39.0,30.18,SSW,204,0.0,0.0,56,0.00,,,0.00,weatherlink.com 1.10,2013-02-12 02:06:00,
2013-02-11 18:21:00,52.9,38.0,30.18,SSW,204,0.0,0.0,58,0.00,,,0.00,weatherlink.com 1.10,2013-02-12 02:21:00,
2013-02-11 18:36:00,51.8,38.0,30.18,SSW,204,0.0,1.0,60,0.00,,,0.00,weatherlink.com 1.10,2013-02-12 02:36:00,
2013-02-11 18:51:00,50.7,39.0,30.18,SSW,204,0.0,0.0,65,0.00,,,0.00,weatherlink.com 1.10,2013-02-12 02:51:00,
2013-02-11 19:06:00,48.6,40.0,30.19,SSW,204,0.0,1.0,71,0.00,,,0.00,weatherlink.com 1.10,2013-02-12 03:06:00,
2013-02-11 19:21:00,47.3,40.0,30.19,SSW,204,0.0,1.0,75,0.00,,,0.00,weatherlink.com 1.10,2013-02-12 03:21:00,
2013-02-11 19:36:00,46.7,40.0,30.19,SSW,204,0.0,1.0,77,0.00,,,0.00,weatherlink.com 1.10,2013-02-12 03:36:00,
2013-02-11 19:51:00,46.3,40.0,30.19,SSW,204,0.0,0.0,78,0.00,,,0.00,weatherlink.com 1.10,2013-02-12 03:51:00,
2013-02-11 20:06:00,45.7,40.0,30.20,SSW,204,0.0,0.0,79,0.00,,,0.00,weatherlink.com 1.10,2013-02-12 04:06:00,
2013-02-11 20:21:00,45.2,39.0,30.20,SSW,204,0.0,1.0,80,0.00,,,0.00,weatherlink.com 1.10,2013-02-12 04:21:00,
2013-02-11 20:36:00,45.3,40.0,30.20,SSW,204,0.0,0.0,81,0.00,,,0.00,weatherlink.com 1.10,2013-02-12 04:36:00,
2013-02-11 20:51:00,44.9,39.0,30.20,SSW,204,0.0,1.0,81,0.00,,,0.00,weatherlink.com 1.10,2013-02-12 04:51:00,
2013-02-11 21:06:00,44.2,39.0,30.20,SSW,204,0.0,0.0,82,0.00,,,0.00,weatherlink.com 1.10,2013-02-12 05:06:00,
2013-02-11 21:21:00,44.3,39.0,30.21,SSW,204,0.0,0.0,82,0.00,,,0.00,weatherlink.com 1.10,2013-02-12 05:21:00,
2013-02-11 21:36:00,44.5,39.0,30.21,SSW,204,0.0,0.0,82,0.00,,,0.00,weatherlink.com 1.10,2013-02-12 05:36:00,
2013-02-11 21:51:00,44.8,39.0,30.21,SSW,204,0.0,0.0,80,0.00,,,0.00,weatherlink.com 1.10,2013-02-12 05:51:00,
2013-02-11 22:06:00,46.3,39.0,30.21,SSW,204,0.0,1.0,77,0.00,,,0.00,weatherlink.com 1.10,2013-02-12 06:06:00,
2013-02-11 22:21:00,45.8,39.0,30.21,SSW,204,0.0,0.0,78,0.00,,,0.00,weatherlink.com 1.10,2013-02-12 06:21:00,
2013-02-11 22:36:00,44.3,39.0,30.21,SSW,204,0.0,0.0,81,0.00,,,0.00,weatherlink.com 1.10,2013-02-12 06:36:00,
2013-02-11 22:51:00,44.1,39.0,30.22,SSW,204,0.0,0.0,82,0.00,,,0.00,weatherlink.com 1.10,2013-02-12 06:51:00,
2013-02-11 23:06:00,44.0,39.0,30.22,SSW,204,0.0,0.0,83,0.00,,,0.00,weatherlink.com 1.10,2013-02-12 07:06:00,
2013-02-11 23:21:00,43.4,39.0,30.22,SSW,204,0.0,0.0,84,0.00,,,0.00,weatherlink.com 1.10,2013-02-12 07:21:00,
2013-02-11 23:36:00,43.3,39.0,30.23,SSW,204,0.0,0.0,84,0.00,,,0.00,weatherlink.com 1.10,2013-02-12 07:36:00,
2013-02-11 23:51:00,43.0,39.0,30.23,SSW,204,0.0,0.0,85,0.00,,,0.00,weatherlink.com 1.10,2013-02-12 07:51:00,